Regional Weather Roundup
Issued by NWS

Home | Current Version | Previous Version | Text Only | Print | Product List | Glossary On
Versions: 1 2 3 4 5 6 7 8 9 10 11 12 13 14 15 16 17 18 19 20 21 22 23 24 25 26 27 28 29 30 31 32 33 34 35 36 37 38 39 40 41 42 43 44 45 46 47 48 49 50
000
ASUS42 KFFC 122103
RWRGA
WEATHER ROUNDUP FOR GEORGIA
NATIONAL WEATHER SERVICE PEACHTREE CITY GA
400 PM EST FRI FEB 12 2016

NOTE: "FAIR" INDICATES FEW OR NO CLOUDS BELOW 12,000 FEET WITH NO
SIGNIFICANT WEATHER AND/OR OBSTRUCTIONS TO VISIBILITY.

* = USE WITH CAUTION. THE STATIONS MARKED WITH AN ASTERISK MAY NOT
REPORT WEATHER SUCH AS PRECIPITATION, FOG, OR THUNDER AND ARE NOT
QUALITY CONTROLLED BY NWS.

THE REMARK "TC" DENOTES TEMPERATURE READING IN DEGREES CELSIUS.

GAZ001>058-122200-
NORTH GEORGIA

CITY           SKY/WX    TMP DP  RH WIND       PRES   REMARKS
ATLANTA        MOSUNNY   62  32  32 NW21      30.03S
ATHENS         SUNNY     60  30  32 W8G16     30.01F
CHAMBLEE       SUNNY     59  32  36 W14G23    30.03S
PEACHTREE CITY SUNNY     64  32  30 W10G22    30.04S
ROME           MOSUNNY   59  29  31 NW14G26   30.05S
WEST ATLANTA   SUNNY     61  31  32 W14G21    30.04S
GAINESVILLE    MOSUNNY   56  29  35 W14G23    30.03R
CARTERSVILLE   SUNNY     59  31  34 CALM      30.05F


CITY           SKY/WX    TMP DP  RH WIND       PRES   REMARKS
DALTON*          N/A     52  36  54 N13       30.07R
LAWRENCEVILLE* SUNNY     57  30  35 W17G25    30.02S
MARIETTA       MOSUNNY   58  31  35 W17G25    30.03S
KENNESAW*      MOSUNNY   57  28  33 W17G29    30.05F
BLAIRSVILLE*     N/A     42  15  33 N3        30.05S
$$

GAZ059>098-102>109-122200-
CENTRAL GEORGIA

CITY           SKY/WX    TMP DP  RH WIND       PRES   REMARKS
AUGUSTA-BUSH   SUNNY     58  37  45 NW8       30.02F
AUGUSTA-DANIEL SUNNY     56  36  47 VRB7      30.03F
COLUMBUS       SUNNY     67  39  35 W16       30.05F
MACON          SUNNY     67  46  47 W13       30.01F
ROBINS AFB     SUNNY     67  46  46 SW13      30.01F


CITY           SKY/WX    TMP DP  RH WIND       PRES   REMARKS
LAGRANGE*      SUNNY     70  42  35 W17       30.05S
SYLVANIA*      SUNNY     62  54  73 NW8       30.04S
MILLEDGEVILLE* SUNNY     63  37  39 NW7       30.01F
$$

GAZ099>101-110>166-122200-
SOUTH GEORGIA

CITY           SKY/WX    TMP DP  RH WIND       PRES   REMARKS
SAVANNAH       CLOUDY    68  53  58 W15G29    30.01F
VALDOSTA       MOSUNNY   77  47  34 W8        30.07R
ALMA           SUNNY     71  52  50 W14G22    30.04S
ST SIMONS      PTSUNNY   73  50  44 W10G23    30.02F
FT STEWART     PTSUNNY   68  53  58 W18G30    30.00S
ALBANY         PTSUNNY   71  49  45 W14G24    30.08F
HUNTER AFB     MOSUNNY   69  55  59 W17G24    29.99S
MOODY AFB      MOSUNNY   76  47  36 W17G26    30.03F
BRUNSWICK      MOSUNNY   73  54  49 W13G20    30.03S


CITY           SKY/WX    TMP DP  RH WIND       PRES   REMARKS
BAINBRIDGE*    SUNNY     77  52  41 W14       30.08F
MOULTRIE*      MOSUNNY   73  50  43 W13G23    30.08S
VIDALIA*       PTSUNNY   66  52  59 W8G20     30.04S
WAYCROSS*      CLOUDY    75  56  52 W15       30.04R
DOUGLAS*       SUNNY     73  50  43 W18G25    30.06S
$$



USA.gov is the U.S. government's official web portal to all federal, state and local government web resources and services.